Location: Aufkirchen
(47.9603°N, 11.3653°E)
Time: 11:24:55
(UTC+01:00)

deb Explorer IX - Pass Details

Date: 30 November 2020
Orbit: 536 x 1104 km, 38.8° (Epoch: 19 January)

Event Time Altitude Azimuth Distance (km) Brightness Sun altitude
Rises 18:52:20 0° 257° (WSW) 3,428 ? -24.0°
Reaches altitude 10° 18:55:20 10° 247° (WSW) 2,384 ? -24.5°
Maximum altitude 19:00:03 29° 189° (S) 1,316 ? -25.3°
Enters shadow 19:00:55 27° 171° (S) 1,340 ? -25.5°
